Weather History for YMML - December, 2013

Change the Weather History Date:

Tuesday, December 24, 2013

  Actual Average Record
Temperature  
Mean Temperature 60 °F -  
Max Temperature 73 °F 76 °F 95 °F (1998)
Min Temperature 46 °F 54 °F 46 °F (2010)
Degree Days  
Heating Degree Days 6    
Growing Degree Days 10 (Base 50)    
Moisture  
Dew Point 45 °F    
Average Humidity 58    
Maximum Humidity 93    
Minimum Humidity 24    
Precipitation  
Precipitation 0.00 in 0.06 in - ()
Sea Level Pressure  
Sea Level Pressure 30.08 in    
Wind  
Wind Speed 8 mph ()    
Max Wind Speed 15 mph    
Max Gust Speed -    
Visibility 6.2 miles    
Events      
Averages and records for this station are not official NWS values.
T = Trace of Precipitation, MM = Missing Value Source: Averaged Metar Reports

Daily Weather History Graph

Daily Weather History Graph

Search for Another Location

Airport or City:

Trip Planner

Search our weather history database for the weather conditions in past years. The results will help you decide how hot, cold, wet, or windy it might be!

Date:

Astronomy

Dec. 24, 2013 Rise Set
Actual Time 5:56 AM AEDT 8:43 PM AEDT
Civil Twilight 5:25 AM AEDT 9:14 PM AEDT
Nautical Twilight 4:46 AM AEDT 9:53 PM AEDT
Astronomical Twilight 4:02 AM AEDT 10:38 PM AEDT
Moon 12:00 AM AEDT (12/24) 12:00 PM AEDT (12/24)
Length of Visible Light 15h 48m
Length of Day
14h 46m
Waning Gibbous, 65% of the Moon is Illuminated
Dec 24
Waning Gibbous
Dec 26
Last Quarter
Jan 1
New
Jan 8
First Quarter
Jan 16
Full

Hourly Weather History & Observations

Time (AEDT) Temp. Windchill Dew Point Humidity Pressure Visibility Wind Dir Wind Speed Gust Speed Precip Events Conditions
12:00 AM 56 °F - 49 °F 69% 30.08 in 25 mi SSW 9.2 mph - -   Partly Cloudy
12:00 AM 57.2 °F - 48.2 °F 72% 30.06 in 6.2 mi SSW 9.2 mph - N/A   Mostly Cloudy
12:30 AM 55.4 °F - 46.4 °F 72% 30.09 in 6.2 mi SW 13.8 mph - N/A   Mostly Cloudy
1:00 AM 55 °F - 46 °F 62% 30.09 in - SW 11.5 mph - -  
1:00 AM 55.4 °F - 46.4 °F 72% 30.09 in 6.2 mi SW 11.5 mph - N/A   Scattered Clouds
1:30 AM 53.6 °F - 46.4 °F 77% 30.09 in 6.2 mi SW 8.1 mph - N/A   Mostly Cloudy
2:00 AM 52 °F - 46 °F 72% 30.09 in - SW 8.1 mph - -  
2:00 AM 51.8 °F - 46.4 °F 82% 30.09 in 6.2 mi SW 8.1 mph - N/A   Mostly Cloudy
2:30 AM 51.8 °F - 46.4 °F 82% 30.09 in 6.2 mi West 4.6 mph - N/A   Mostly Cloudy
3:00 AM 51 °F - 46 °F 77% 30.09 in 25 mi West 5.8 mph - -   Partly Cloudy
3:00 AM 50.0 °F - 46.4 °F 87% 30.09 in 6.2 mi West 5.8 mph - N/A   Mostly Cloudy
3:30 AM 48.2 °F - 44.6 °F 87% 30.06 in 6.2 mi WSW 5.8 mph - N/A   Scattered Clouds
4:00 AM 48 °F - 44 °F 82% 30.07 in - SW 4.6 mph - -  
4:00 AM 48.2 °F - 44.6 °F 87% 30.06 in 6.2 mi SW 4.6 mph - N/A   Partly Cloudy
4:30 AM 46.4 °F 42.9 °F 44.6 °F 93% 30.06 in 6.2 mi West 6.9 mph - N/A   Partly Cloudy
5:00 AM 48 °F - 43 °F 77% 30.07 in - West 4.6 mph - -  
5:00 AM 48.2 °F - 42.8 °F 82% 30.06 in 6.2 mi West 4.6 mph - N/A   Partly Cloudy
5:30 AM 46.4 °F 44.3 °F 42.8 °F 87% 30.09 in 6.2 mi West 4.6 mph - N/A   Scattered Clouds
6:00 AM 48 °F - 43 °F 77% 30.09 in 25 mi WSW 5.8 mph - -   Partly Cloudy
6:00 AM 48.2 °F - 42.8 °F 82% 30.09 in 6.2 mi WSW 5.8 mph - N/A   Mostly Cloudy
6:30 AM 50.0 °F - 44.6 °F 82% 30.09 in 6.2 mi SSW 6.9 mph - N/A   Mostly Cloudy
7:00 AM 52 °F - 45 °F 69% 30.11 in - Calm Calm - -  
7:00 AM 51.8 °F - 44.6 °F 76% 30.09 in 6.2 mi Calm Calm - N/A   Mostly Cloudy
7:30 AM 55.4 °F - 42.8 °F 63% 30.09 in 6.2 mi SSW 6.9 mph - N/A   Mostly Cloudy
8:00 AM 56 °F - 41 °F 47% 30.12 in - South 10.4 mph - -  
8:00 AM 55.4 °F - 41.0 °F 58% 30.12 in 6.2 mi South 10.4 mph - N/A   Mostly Cloudy
8:30 AM 57.2 °F - 42.8 °F 59% 30.12 in 6.2 mi South 8.1 mph - N/A   Scattered Clouds
9:00 AM 60 °F - 43 °F 42% 30.13 in 25 mi South 9.2 mph - -   Partly Cloudy
9:00 AM 60.8 °F - 42.8 °F 52% 30.12 in 6.2 mi South 9.2 mph - N/A   Scattered Clouds
9:30 AM 59.0 °F - 41.0 °F 51% 30.12 in 6.2 mi South 10.4 mph - N/A   Scattered Clouds
10:00 AM 60 °F - 43 °F 41% 30.12 in - South 8.1 mph - -  
10:00 AM 60.8 °F - 42.8 °F 52% 30.12 in 6.2 mi South 8.1 mph - N/A   Partly Cloudy
10:30 AM 60.8 °F - 42.8 °F 52% 30.12 in 6.2 mi SSE 6.9 mph - N/A   Partly Cloudy
11:00 AM 63 °F - 42 °F 34% 30.12 in - SE 9.2 mph - -  
11:00 AM 62.6 °F - 42.8 °F 48% 30.12 in 6.2 mi SE 9.2 mph - N/A   Partly Cloudy
11:30 AM 64.4 °F - 41.0 °F 42% 30.12 in 6.2 mi South 11.5 mph - N/A   Partly Cloudy
12:00 PM 65 °F - 43 °F 34% 30.12 in 25 mi East 8.1 mph - -   Partly Cloudy
12:00 PM 66.2 °F - 42.8 °F 43% 30.12 in 6.2 mi East 8.1 mph - N/A   Partly Cloudy
12:30 PM 66.2 °F - 44.6 °F 46% 30.12 in 6.2 mi SE 9.2 mph - N/A   Partly Cloudy
1:00 PM 66 °F - 44 °F 33% 30.11 in - SE 8.1 mph - -  
1:00 PM 66.2 °F - 44.6 °F 46% 30.09 in 6.2 mi SE 8.1 mph - N/A   Partly Cloudy
1:30 PM 66.2 °F - 44.6 °F 46% 30.09 in 6.2 mi SSE 8.1 mph - N/A   Partly Cloudy
2:00 PM 69 °F - 43 °F 28% 30.08 in - SSE 9.2 mph - -  
2:00 PM 69.8 °F - 42.8 °F 38% 30.06 in 6.2 mi SSE 9.2 mph - N/A   Partly Cloudy
2:30 PM 69.8 °F - 44.6 °F 40% 30.06 in 6.2 mi SE 5.8 mph - N/A   Partly Cloudy
3:00 PM 70 °F - 44 °F 27% 30.06 in 25 mi SSE 8.1 mph - -   Partly Cloudy
3:00 PM 69.8 °F - 42.8 °F 38% 30.06 in 6.2 mi SSE 8.1 mph - N/A   Partly Cloudy
3:30 PM 71.6 °F - 44.6 °F 38% 30.04 in 6.2 mi SE 8.1 mph - N/A   Partly Cloudy
4:00 PM 71 °F - 44 °F 26% 30.04 in - SSE 12.7 mph - -  
4:00 PM 71.6 °F - 44.6 °F 38% 30.04 in 6.2 mi SSE 12.7 mph - N/A   Partly Cloudy
4:30 PM 71.6 °F - 42.8 °F 35% 30.04 in - ESE 10.4 mph - N/A   Clear
5:00 PM 73 °F - 44 °F 24% 30.03 in - SE 11.5 mph - -  
5:00 PM 73.4 °F - 44.6 °F 36% 30.04 in - SE 11.5 mph - N/A   Clear
5:30 PM 71.6 °F - 42.8 °F 35% 30.01 in - SSE 12.7 mph - N/A   Clear
6:00 PM 71 °F - 44 °F 26% 30.02 in 25 mi SSE 12.7 mph - -   Partly Cloudy
6:00 PM 71.6 °F - 44.6 °F 38% 30.01 in - SSE 12.7 mph - N/A   Clear
6:30 PM 69.8 °F - 44.6 °F 40% 30.01 in - South 15.0 mph - N/A   Clear
7:00 PM 68 °F - 45 °F 33% 30.03 in - South 15.0 mph - -  
7:00 PM 68.0 °F - 44.6 °F 43% 30.04 in - South 15.0 mph - N/A   Clear
7:30 PM 66.2 °F - 48.2 °F 52% 30.04 in - South 13.8 mph - N/A   Clear
8:00 PM 65 °F - 49 °F 47% 30.05 in - South 12.7 mph - -  
8:00 PM 64.4 °F - 50.0 °F 59% 30.04 in - South 12.7 mph - N/A   Clear
8:30 PM 62.6 °F - 50.0 °F 63% 30.04 in - South 10.4 mph - N/A   Clear
9:00 PM 61 °F - 51 °F 60% 30.06 in 25 mi SSW 9.2 mph - -   Partly Cloudy
9:00 PM 60.8 °F - 50.0 °F 68% 30.06 in - SSW 9.2 mph - N/A   Clear
9:30 PM 59.0 °F - 50.0 °F 72% 30.04 in - SW 8.1 mph - N/A   Clear
10:00 PM 58 °F - 50 °F 68% 30.06 in - WSW 6.9 mph - -  
10:00 PM 57.2 °F - 50.0 °F 77% 30.06 in - WSW 6.9 mph - N/A   Clear
10:30 PM 57.2 °F - 50.0 °F 77% 30.06 in - WSW 5.8 mph - N/A   Clear
11:00 PM 55 °F - 49 °F 76% 30.06 in - West 8.1 mph - -  
11:00 PM 55.4 °F - 50.0 °F 82% 30.06 in - West 8.1 mph - N/A   Clear
11:30 PM 53.6 °F - 50.0 °F 88% 30.06 in - West 8.1 mph - N/A   Clear